Location: Davidson Heights
(40.5834°N, 80.2598°W)
Time: 06:14:03
(UTC+00:00)

X-37B - Visible Passes

Search period start: 25 November 2020 00:00
Search period end: 05 December 2020 00:00
Orbit: 384 x 389 km, 45.0° (Epoch: 12 November)

Date Brightness Start Highest point End Pass type
(mag) Time Alt. Az. Time Alt. Az. Time Alt. Az.
25 Nov 2.8 23:02:08 10° S 23:03:42 13° SE 23:04:30 12° SE visible
26 Nov 4.1 00:36:45 10° WSW 00:36:47 10° WSW 00:36:47 10° WSW visible
26 Nov 1.4 23:38:22 10° SW 23:41:02 41° S 23:41:02 41° S visible
27 Nov 2.2 22:40:20 10° SSW 22:42:56 24° SE 22:45:13 12° E visible
28 Nov 3.2 00:16:13 10° WSW 00:17:30 22° W 00:17:30 22° W visible
28 Nov 0.5 23:17:37 10° WSW 23:20:47 78° SSE 23:21:38 44° ENE visible
29 Nov 2.1 23:55:49 10° W 23:58:00 34° WNW 23:58:00 34° WNW visible
30 Nov 0.7 22:57:05 10° WSW 23:00:14 65° NNW 23:02:04 23° ENE visible
01 Dec 4.1 00:34:13 10° WNW 00:34:20 11° WNW 00:34:20 11° WNW visible
01 Dec 1.5 23:35:28 10° WNW 23:38:22 37° N 23:38:22 37° N visible
02 Dec 1.2 22:36:41 10° W 22:39:46 46° NNW 22:42:25 13° ENE visible
03 Dec 3.3 00:13:47 10° WNW 00:14:41 17° NW 00:14:41 17° NW visible
03 Dec 1.5 23:15:05 10° WNW 23:18:02 34° N 23:18:44 30° NNE visible
04 Dec 2.3 23:53:16 10° WNW 23:55:05 27° NW 23:55:05 27° NW visible
